Preview of NWS' New Version of Forecast
This preview is not operational and should not be used for support decisions.

Regional Weather Roundup (RWR)

Issued by Gray - Portland, ME (GYX)

                            
630 
ASUS41 KGYX 191610
RWRGYX
WEATHER ROUNDUP FOR MAINE AND NEW HAMPSHIRE
NATIONAL WEATHER SERVICE GRAY ME
1100 AM EST MON FEB 19 2018

MEZ002-005-006-010-012-015-018-020-021-024-026-027-029-191700-
MAINE
  
CITY           SKY/WX    TMP DP  RH WIND       PRES   REMARKS
PORTLAND       CLOUDY    39  25  57 S17G24    30.50F                  
SANFORD        FAIR      39  24  55 S12G20    30.49F                  
BAR HARBOR     FAIR      39  30  70 S14       30.54S                  
WISCASSET      FAIR      41  31  67 SW14G24   30.51F                  
ROCKLAND       PTSUNNY   41  33  73 SW14G22   30.52F                  
FRYEBURG       FAIR      39  24  55 S12G23    30.44F                  
LEWISTONAUBURN FAIR      39  23  52 S13G21    30.47F                  
AUGUSTA        FAIR      39  27  62 S9        30.47F                  
WATERVILLE     FAIR      38  26  62 S9G18     30.42F                  
BANGOR         FAIR      38  27  64 S20       30.50F                  
GREENVILLE       N/A     31  21  66 S12G23    30.32F                  
MILLINOCKET    FAIR      34  21  59 VRB5      30.44F                  
HOULTON        FAIR      35  16  45 SW16G24   30.41F                  
PRESQUE ISLE   LGT SNOW  33  17  51 S22G29    30.35F                  
FRENCHVILLE    FAIR      25  15  66 SE15      30.27F WCI  13          
CARIBOU        FAIR      31  17  56 S15G23    30.33F                  
$$

NHZ002-005-008-009-011-012-014-191700-
NEW HAMPSHIRE
  
CITY           SKY/WX    TMP DP  RH WIND       PRES   REMARKS
PORTSMOUTH     PTSUNNY   40  25  53 S10       30.48F                  
ROCHESTER      FAIR      41  26  55 VRB5      30.47F                  
NASHUA         FAIR      41  28  60 S8        30.48F                  
MANCHESTER     PTSUNNY   39  26  59 S14       30.44F                  
CONCORD        FAIR      36  26  67 S9        30.45F                  
LACONIA        FAIR      30  21  69 E5        30.44F                  
PLYMOUTH       FAIR      36  22  56 E5        30.43F                  
BERLIN         FAIR      29  19  66 CALM      30.33F                  
WHITEFIELD     FAIR      38  23  55 CALM      30.34F                  
JAFFREY        FAIR      38  29  70 S17G26    30.42F                  
KEENE          FAIR      41  30  65 S17       30.43F                  
LEBANON        FAIR      38  24  57 S16       30.39F                  
MT WASHINGTON  CLOUDY    19  16  86 SW37G53     N/A  WCI  -1          
$$

VTZ005-007-008-191700-
VERMONT
  
CITY           SKY/WX    TMP DP  RH WIND       PRES   REMARKS
ST JOHNSBURY     N/A     36  23  59 MISG      30.33F                  
MONTPELIER     FAIR      34  22  61 S14G20    30.35F                  
BURLINGTON     PTSUNNY   39  23  52 S29G41    30.29F                  
$$

MAZ007-012-024-CTZ003-RIZ002-NYZ038-NYZ072-191700-
SOUTHERN NEW ENGLAND AND NY
  
CITY           SKY/WX    TMP DP  RH WIND       PRES   REMARKS
BOSTON         FAIR      43  31  62 SW17      30.51F                  
WORCESTER      FAIR      40  29  64 S17G24    30.45F                  
NANTUCKET      FAIR      45  38  76 S12       30.57F                  
PROVIDENCE     FAIR      44  34  67 S15       30.52F                  
HARTFORD       FAIR      43  31  62 S13G20    30.48F                  
ALBANY         PTSUNNY   42  27  55 S18G24    30.39F                  
NEW YORK CITY  PTSUNNY   47  34  60 S12G20    30.50S                  
$$

ANZ081-ANZ082-ANZ150-NHZ014-MEZ023>029-191700-
COASTAL MARINE OBSERVATIONS
  
STATION/POSITION TIME  TEMP    WIND        PRES    WAVE
                       AIR SEA DIR/SP/G            HT/PER
                 (UTC) (F)     (DEG/KT/KT) (MB)    (FT/S)
MOUNT DESERT ROC 1600   42     200/ 26/ 29 1034.4R
MATINICUS ROCK   1600   41     210/ 28/ 30 1033.6R
ISLE OF SHOALS   1600   39     180/ 15/ 16 1033.0F
JEFFREYS LEDGE   1506      42                N/A     6/ 5
GEORGES BANK BUO 1450   40 59              1032.2   17/11
$$

.............KEY..............
   WCI - WIND CHILL
   TC  - TEMPERATURE IN CELSIUS
   VSB - VISIBILITY IN MILES
   HX  - HEAT INDEX
   FAIR- INDICATES FEW OR NO CLOUDS BELOW 12,000 FT, WITH NO 
         SIGNIFICANT WEATHER AND/OR OBSTRUCTIONS TO VISIBILITY.